SCP
0 0 0 0 0 0 0 0 0 0 0 0 0 0 0 0 0 0 0 0 0 0 -0 0 0 0 0 0 0 0 0 0 0 0 0 0 0 0 0 0 0 0 0 0
0 0 0 0 0 0 0 0 0 0 0 0 0 0 0 0 0 0 0 0 0 0 0 0 0 0 0 0 0 0 0 0 0 0 0 0 0 0 0 0 0 0 0 0
0 0 0 0 0 0 0 0 0 0 0 0 0 0 0 0 0 0 0 0 0 0 0 0 0 0 0 0 0 0 0 0 0 0 0 0 0 0 0 0 0 0 0 0
0 0 0 0 0 0 0 0 0 0 0 0 0 0 0 0 0 0 0 0 0 0 0 0 0 0 0 0 0 0 0 0 0 0 0 0 0 0 0 -0 0 0 0 0
0 0 0 0 0 0 0 0 0 0 0 0 0 0 0 0 0 -0 -0 0 -0 -0 0 0 0 0 0 0 0 0 0 0 0 0 0 0 0 0 0 0 0 0 0 0
0 0 0 0 -0 0 0 0 0 0 0 0 0 0 0 0 0 -0 -0 0 -0 -0 0 0 0 0 0 0 0 0 0 0 0 0 0 0 0 0 0 0 0 0 0 0
0 0 0 0 0 0 0 0 0 0 0 0 0 0 0 0 0 0 -0 0 0 0 0 0 0 0 0 0 0 0 0 0 0 0 0 0 0 0 0 0 0 0 0 0
0 0 0 0 0 0 0 0 0 0 0 0 0 0 0 0 0 0 0 0 0 0 0 0 0 0 0 0 0 0 -0 0 0 0 0 0 0 0 0 0 0 0 0 0
0 0 0 0 0 0 0 0 0 0 0 0 0 0 0 0 0 0 0 0 0 0 0 0 0 0 0 0 0 0 -0 -0 -0 0 0 0 0 0 0 0 0 0 0 0
0 0 0 0 0 0 0 0 0 0 0 0 0 0 0 0 0 0 0 0 0 0 0 0 0 0 0 0 0 0 0 0 0 0 0 0 0 0 0 0 0 0 0 0
0 0 0 0 0 0 -0 0 0 0 0 0 0 0 0 0 0 0 0 0 -0 0 0 0 0 0 0 0 0 0 0 0 0 0 0 0 0 0 0 0 0 0 0 0
0 0 0 0 0 0 0 0 0 0 0 0 0 0 0 0 0 0 0 0 0 0 0 0 0 0 0 0 0 0 0 0 0 0 0 0 0 0 0 0 0 0 0 0
0 0 0 0 0 0 0 0 0 0 0 0 0 0 0 0 0 0 0 0 0 0 0 0 0 0 -0 -0 0 0 0 0 0 0 0 0 0 0 0 0 0 0 0 0
0 0 0 0 0 0 0 0 0 0 0 0 0 0 0 0 0 0 0 0 0 0 0 0 0 0 -0 -0 0 0 0 0 0 0 0 0 0 0 0 0 0 0 0 0
0 0 0 0 0 0 0 0 0 0 0 0 0 0 0 0 0 0 0 0 0 0 0 0 0 0 0 0 0 0 0 0 0 0 0 0 0 0 0 0 0 0 0 0
0 0 0 0 0 0 0 0 0 0 0 0 0 0 0 0 0 0 0 0 0 0 0 0 0 0 0 0 0 0 0 0 0 0 0 0 0 0 0 0 0 0 0 0
0 0 0 0 0 0 0 0 0 0 0 0 0 0 0 0 0 0 0 0 0 0 0 0 0 0 0 0 0 0 0 0 0 0 0 0 0 0 0 0 0 0 0 0
0 0 0 0 0 0 0 0 0 0 0 0 0 0 0 0 0 0 0 0 0 0 0 0 0 0 0 0 0 0 0 0 0 0 0 0 0 0 0 0 0 0 0 0
0 0 0 0 0 0 0 0 0 0 0 0 0 0 0 0 0 0 0 0 0 0 0 0 0 0 0 0 0 0 0 0 0 0 0 0 0 0 0 0 0 0 0 0
0 0 0 0 0 0 0 0 0 0 0 0 0 0 0 0 0 0 0 0 0 0 0 0 0 0 0 0 0 0 0 0 0 0 0 0 0 0 0 0 0 0 0 0
0 0 0 0 0 0 0 0 0 0 0 0 0 0 0 0 0 0 0 0 0 0 0 0 0 0 0 0 0 0 0 0 0 0 0 0 0 0 0 0 0 0 0 0
0 0 0 0 0 0 0 0 0 0 0 0 0 0 0 0 0 0 0 0 0 0 0 0 0 0 0 0 0 0 0 0 0 0 0 0 0 0 0 0 0 0 0 0
0 0 0 0 0 0 0 0 0 0 0 0 0 0 0 0 0 0 0 0 0 0 0 0 0 0 0 0 0 0 0 0 0 0 0 0 0 0 0 0 0 0 0 0
0 0 0 0 0 -0 0 0 0 0 0 0 0 0 0 0 0 0 0 0 0 0 0 0 0 0 0 0 0 0 0 0 0 0 0 0 0 0 0 0 0 0 0 0
0 0 0 0 0 -0 0 0 0 0 0 0 0 0 0 0 0 0 0 0 0 0 0 0 0 0 0 0 0 0 0 0 0 0 0 0 0 0 0 0 0 0 0 0
0 0 0 0 0 0 0 0 0 0 0 0 0 0 0 0 0 0 0 0 0 0 0 0 0 0 0 0 0 0 0 0 0 0 0 0 0 0 0 0 0 0 0 0
0 0 0 0 0 0 0 0 0 0 0 0 0 0 0 0 0 0 0 0 0 0 0 0 0 0 0 0 0 0 0 0 0 0 0 0 0 0 0 0 0 0 0 0
Wind_Speed
7 5 4 6 8 8 10 9 9 10 11 13 10 6 5 5 5 4 5 4 4 4 4 4 4 4 4 4 4 4 4 5 5 5 4 4 4 4 4 4 5 4 5 5
6 6 6 8 11 12 12 11 12 12 13 11 8 4 4 5 4 5 5 4 3 4 4 5 5 5 4 5 5 4 4 5 5 5 5 4 4 4 4 4 5 4 5 5
5 4 2 9 11 11 8 8 9 12 12 6 4 4 5 5 4 4 4 3 4 4 4 5 5 4 4 5 5 4 4 5 5 5 4 5 5 5 5 5 4 5 5 4
3 1 9 9 4 7 8 7 7 6 5 5 5 4 3 2 2 2 3 4 4 4 4 5 4 4 4 4 4 4 4 5 5 4 5 5 4 5 5 4 4 5 5 4
3 4 8 7 3 4 6 6 5 6 5 3 2 2 3 2 0 1 3 3 3 4 4 4 5 5 4 4 4 4 5 6 5 5 5 5 5 5 5 4 4 4 4 4
4 4 7 6 3 2 3 4 3 3 3 3 1 2 4 3 2 2 3 3 3 3 4 4 5 4 4 5 5 5 6 6 6 5 4 5 5 5 4 3 4 4 4 3
6 6 7 6 3 2 3 6 2 2 3 2 3 5 4 2 2 2 3 4 4 4 4 4 5 4 4 5 5 6 6 6 5 5 4 4 4 4 3 3 3 3 3 3
5 6 7 3 2 3 5 3 1 1 2 2 2 3 2 2 2 3 4 4 4 4 5 5 4 3 4 6 6 6 5 5 5 5 4 3 3 3 2 2 2 2 2 3
6 6 3 2 3 4 2 2 2 2 1 1 1 2 3 3 3 4 4 5 4 4 6 6 5 4 5 7 6 5 5 5 5 5 4 3 2 2 2 1 1 1 1 2
4 6 5 5 5 3 2 2 2 2 1 1 2 3 3 3 4 4 4 5 5 5 6 6 6 5 5 5 4 4 5 5 4 4 4 3 2 2 1 1 1 1 1 2
6 6 4 3 3 3 2 1 1 1 1 2 2 3 3 4 4 4 5 5 4 5 6 7 7 6 5 4 4 4 4 4 4 3 2 2 2 2 2 2 2 2 2 2
7 6 4 4 3 2 1 2 2 1 2 2 1 3 3 4 4 4 4 5 5 5 6 7 7 6 5 4 3 3 4 4 3 2 2 1 1 3 3 3 5 5 4 3
6 4 3 3 2 2 2 2 2 2 2 2 2 2 2 3 4 4 5 5 6 6 6 7 6 6 5 5 3 3 3 4 3 2 1 1 1 1 3 5 6 5 4 4
3 1 1 2 2 1 1 2 2 2 2 1 2 2 3 3 4 5 5 6 6 6 6 6 6 6 5 5 4 3 3 3 3 2 1 1 1 1 1 2 3 4 4 4
3 1 2 2 1 2 1 1 1 2 3 3 2 3 3 4 5 6 6 6 5 5 5 5 6 6 5 4 4 4 3 2 2 1 1 1 1 1 1 1 2 2 3 4
3 1 0 0 1 2 2 2 2 3 3 3 3 4 4 4 5 5 5 4 4 5 6 6 6 6 5 4 4 3 2 4 3 2 1 1 1 1 1 1 2 2 2 2
1 1 1 1 2 2 2 2 3 3 3 3 4 4 4 4 5 5 5 5 4 5 5 5 6 6 5 4 3 2 2 2 3 2 1 1 1 1 1 1 1 2 2 3
1 2 2 2 2 3 3 3 3 3 3 4 4 3 4 4 5 6 6 5 5 5 5 5 5 5 5 4 3 2 2 2 2 1 1 1 1 1 1 1 2 2 2 3
1 1 1 1 2 2 2 3 3 3 3 3 3 3 4 4 4 5 5 5 5 6 6 6 8 6 4 4 4 1 1 2 2 2 2 2 2 2 2 2 2 2 2 2
2 2 2 2 2 2 2 3 3 3 3 3 3 3 4 4 4 4 4 4 4 4 5 6 6 4 4 4 4 2 2 2 2 2 2 2 2 2 2 2 2 2 2 2
3 3 2 2 3 2 2 2 2 3 3 3 3 3 4 5 4 4 3 4 5 5 5 7 5 3 3 3 4 2 2 2 2 1 1 2 2 2 2 2 2 2 2 2
3 2 2 2 2 3 3 2 2 3 3 3 3 3 4 4 4 4 3 3 4 7 5 4 3 5 5 5 2 2 2 2 2 1 1 1 1 1 1 2 2 2 2 2
3 2 3 2 2 3 4 3 3 3 3 3 4 4 4 4 3 3 4 3 3 6 5 3 5 6 6 4 2 2 2 2 1 1 1 1 1 1 1 1 2 2 2 2
3 3 3 3 2 2 3 4 3 3 3 3 4 4 4 3 3 3 3 5 7 7 4 4 6 6 5 2 2 2 2 1 1 1 1 1 1 1 1 1 1 1 2 2
3 2 2 2 3 2 3 3 3 3 3 3 3 4 3 2 3 3 3 4 6 6 4 4 6 6 4 2 2 2 1 1 1 1 1 1 1 1 1 1 1 1 1 1
2 2 2 2 2 2 3 3 3 3 3 3 3 3 3 3 3 3 3 3 4 5 3 3 3 4 2 2 2 2 1 2 2 1 1 1 1 1 1 1 1 1 1 1
3 2 2 3 2 2 2 2 2 3 3 3 4 4 3 3 3 3 3 3 3 2 2 2 2 2 2 2 2 2 1 1 1 1 1 1 0 0 0 1 1 1 1 1
Wind_Direction
249 248 226 231 232 215 212 212 221 242 245 261 269 273 278 281 285 296 306 312 316 318 319 324 323 314 306 301 304 305 301 296 291 293 290 287 287 283 282 277 276 272 277 280
262 249 236 247 243 230 229 228 235 253 263 261 272 282 284 284 281 288 298 306 321 330 328 322 314 310 312 307 303 305 299 297 301 302 303 300 292 286 285 285 283 280 276 273
257 265 264 250 230 217 217 214 211 236 250 267 286 280 273 272 272 275 288 306 314 312 308 304 302 304 303 297 304 309 303 306 309 311 311 305 302 298 286 281 279 280 271 270
240 205 233 243 222 208 217 238 224 231 258 260 254 267 281 261 245 291 306 309 307 304 306 308 309 308 309 311 312 313 309 306 307 309 305 303 301 297 289 281 276 275 266 264
202 231 268 284 255 193 200 251 237 227 250 275 297 1 329 318 294 273 298 299 294 294 299 307 312 313 319 319 317 314 307 302 301 300 301 303 300 293 288 284 280 276 266 261
202 214 240 255 265 220 136 265 256 204 235 269 2 312 282 303 325 320 321 318 308 310 315 317 312 317 319 313 314 305 297 295 297 298 298 295 292 292 290 283 279 285 282 267
221 233 257 268 275 110 168 241 244 207 241 250 219 231 251 285 309 308 310 310 315 319 314 306 307 319 312 306 298 293 296 299 300 301 298 292 293 295 298 299 299 295 296 290
202 218 247 274 128 172 222 241 234 243 256 246 250 265 270 285 300 308 311 313 318 318 310 307 306 307 302 296 293 297 299 300 301 302 299 303 301 300 301 299 298 294 302 307
204 227 255 239 229 240 218 231 250 242 265 214 268 282 292 295 298 302 303 307 309 303 303 305 305 295 289 291 296 304 307 303 299 302 299 297 294 295 301 300 287 298 312 311
249 265 268 272 271 279 259 237 245 227 210 195 239 266 288 300 304 304 303 306 309 310 308 305 306 302 288 292 297 304 306 303 301 300 302 318 324 313 307 291 283 292 293 291
251 266 286 275 262 268 282 300 302 286 229 222 237 272 279 288 289 289 299 304 306 304 300 300 304 303 301 301 305 308 308 305 306 304 300 322 331 318 297 284 264 268 265 258
238 238 225 250 267 280 260 277 271 267 292 301 267 272 286 286 289 294 302 307 306 305 303 302 305 303 305 307 305 308 314 315 311 311 315 321 338 343 340 323 320 315 306 291
242 257 233 246 279 282 263 285 286 269 263 284 302 297 299 301 303 308 309 308 305 304 302 302 305 305 308 308 309 300 298 304 305 309 317 327 335 353 347 352 357 357 357 354
271 262 262 267 263 282 276 292 322 334 324 301 300 310 310 309 310 314 311 308 306 305 306 308 309 307 310 312 311 307 302 298 303 299 306 322 332 332 332 332 336 343 353 0
298 251 233 257 295 322 328 339 348 335 329 321 319 317 313 311 308 308 309 311 312 309 309 313 313 311 313 314 313 308 311 311 313 318 327 340 350 356 352 341 333 333 346 354
298 316 1 178 308 328 336 327 304 302 304 307 313 311 305 300 301 306 313 320 318 313 313 315 312 313 316 312 314 312 310 313 322 332 348 354 358 6 360 350 351 0 356 348
264 283 294 292 294 300 296 285 271 276 287 295 299 307 314 315 315 316 317 319 312 306 309 312 310 315 320 318 315 311 318 323 337 354 5 8 14 10 6 2 1 358 352 349
225 235 237 239 256 280 298 301 297 295 293 296 303 311 314 313 309 310 314 319 321 321 322 317 316 319 322 324 325 326 341 351 3 12 15 17 14 18 15 17 13 2 352 359
356 318 295 289 275 269 281 291 294 295 302 307 307 303 300 300 303 307 314 322 324 320 322 323 327 331 329 328 332 347 13 15 18 24 26 3 3 19 31 30 17 5 359 9
348 342 331 323 319 302 290 293 293 297 303 307 307 309 311 311 312 314 317 313 307 300 308 321 326 327 327 329 343 7 23 25 25 26 23 30 33 28 27 25 18 12 10 13
345 341 339 334 325 318 303 296 294 299 307 310 304 300 302 307 310 310 314 313 314 318 322 329 334 331 334 347 357 14 23 26 27 33 32 39 37 32 28 24 17 12 11 12
341 340 335 331 330 324 322 319 305 304 312 317 314 307 306 310 316 313 300 289 302 322 329 327 328 336 346 355 9 17 20 24 27 36 40 40 40 35 25 17 12 6 7 11
332 332 333 330 321 314 321 324 316 312 310 311 309 306 301 299 301 303 308 310 310 322 327 321 327 338 350 2 13 17 17 18 16 25 41 41 37 34 21 10 6 4 8 14
333 333 326 321 322 327 330 325 325 321 313 309 307 303 301 306 309 297 284 307 322 325 324 325 337 349 354 11 17 15 10 6 3 21 40 38 37 29 20 13 8 2 8 15
323 319 322 331 336 324 315 320 326 326 324 321 317 315 311 295 288 301 306 309 318 328 329 335 347 353 1 7 9 3 355 344 344 29 51 26 22 20 15 11 9 2 6 11
319 315 310 303 295 298 306 313 317 318 321 322 322 321 318 313 305 302 306 312 316 329 333 336 344 349 353 352 351 349 345 340 352 5 25 19 11 5 360 3 0 360 9 17
322 323 327 329 327 317 310 308 308 310 310 308 308 310 313 315 317 318 317 320 325 335 339 342 344 344 342 342 340 337 336 338 342 345 356 6 6 0 340 338 346 355 8 20